Location: Bennemühlen
(52.5740°N, 9.7135°E)
Time: 21:51:22
(UTC+00:00)

BREEZE-M DEB (TANK) - Pass Details

Date: 19 May 2025
Orbit: 281 x 12174 km, 49.5° (Epoch: 15 June)

Event Time Altitude Azimuth Distance (km) Brightness Sun altitude
Rises 20:23:33 0° 262° (W) 11,914 9.6 -8.2°
Reaches altitude 10° 20:35:40 10° 263° (W) 8,620 8.8 -9.4°
Maximum altitude 20:56:49 75° 184° (S) 1,555 4.4 -11.3°
Drops below altitude 10° 21:02:00 10° 100° (E) 2,371 5.2 -11.7°
Enters shadow 21:02:51 - 98° (E) 2,708 5.5 -11.8°
